Voltar ao catálogo

STARLINK-32416

AtivoComunicaçõesVLEO
NORAD 61589·PAYLOAD·🇺🇸 United States

Lançado Oct 18, 2024 de Cape Canaveral Space Force Station

Loading…

Próximas Passagens (próximas 24 horas)

TLE

AtualizadoSource: CelesTrak SupGP

Época: Sep 15, 2026, 03:41 UTC

1 61589C 24187R   26258.15395833 -.00051797  00000+0 -15303-2 0  2583
2 61589  53.1579 246.3658 0001397  89.8107 273.1085 15.34417356    14

Acompanhe STARLINK-32416 em tempo real com AllMySat

Download on the App Store